Location: Drocourt
(49.0571°N, 1.7669°E)
Time: 08:23:23
(UTC+00:00)

Okean O Rocket - Pass Details

Date: 09 February 2023
Orbit: 620 x 643 km, 98.1° (Epoch: 24 March)

Event Time Altitude Azimuth Distance (km) Brightness Sun altitude
Rises 18:08:33 0° 138° (SE) 2,924 4.7 -11.2°
Reaches altitude 10° 18:10:54 10° 129° (SE) 2,024 3.8 -11.6°
Maximum altitude 18:14:49 33° 66° (ENE) 1,088 2.3 -12.2°
Drops below altitude 10° 18:18:48 10° 3° (N) 2,048 4.1 -12.9°
Sets 18:21:11 0° 354° (N) 2,965 5.0 -13.2°
